When you browse on this site, cookies collect data to enhance your experience and personalize the content and advertising you see.
Visit our Privacy Policy to learn more. By continuing to use the site, you agree to this use of cookies and data.
  • In Hungary
  • List of Countries
  • For 7 days
  • Water Temperature
  • Satellite Maps
  • Weather Map
  • News
  • Weather Widgets
  • user-avatar
    Login

    Hourly Weather Byala

    Today, 19 January, Saturday

    Time Temperature Precipitation Wind Pressure Humidity
    00:00 +4°C° 0 mm 4 mps 751 mmHg 84%
    01:00 +4°C° 0 mm 3 mps 751 mmHg 82%
    02:00 +4°C° 0 mm 3 mps 752 mmHg 80%
    03:00 +3°C° 0 mm 3 mps 752 mmHg 76%
    04:00 +3°C° 0 mm 3 mps 752 mmHg 72%
    05:00 +3°C° 0 mm 3 mps 752 mmHg 68%
    06:00 +3°C° 0 mm 3 mps 753 mmHg 69%
    07:00 +2°C° 0 mm 3 mps 753 mmHg 70%
    08:00 +2°C° 0 mm 3 mps 754 mmHg 71%
    09:00 +3°C° 0 mm 4 mps 754 mmHg 71%
    10:00 +4°C° 0 mm 4 mps 754 mmHg 71%
    11:00 +4°C° 0 mm 4 mps 755 mmHg 71%
    12:00 +5°C° 0 mm 4 mps 755 mmHg 72%
    13:00 +5°C° 0 mm 5 mps 755 mmHg 72%
    14:00 +5°C° 0 mm 5 mps 755 mmHg 73%
    15:00 +5°C° 0 mm 5 mps 755 mmHg 77%
    16:00 +3°C° 0 mm 5 mps 755 mmHg 80%
    17:00 +3°C° 0 mm 5 mps 755 mmHg 84%
    18:00 +3°C° 0.1 mm 5 mps 755 mmHg 85%
    19:00 +3°C° 0.1 mm 5 mps 755 mmHg 85%
    20:00 +3°C° 0.1 mm 5 mps 755 mmHg 86%
    21:00 +3°C° 0.2 mm 5 mps 755 mmHg 87%
    22:00 +3°C° 0.2 mm 5 mps 755 mmHg 88%
    23:00 +3°C° 0.2 mm 5 mps 755 mmHg 89%

    Tomorrow, 20 January, Sunday

    Time Temperature Precipitation Wind Pressure Humidity
    00:00 +3°C° 0.1 mm 5 mps 755 mmHg 90%
    01:00 +4°C° 0.1 mm 4 mps 755 mmHg 90%
    02:00 +4°C° 0.1 mm 4 mps 755 mmHg 90%
    03:00 +4°C° 0.1 mm 4 mps 754 mmHg 91%
    04:00 +5°C° 0.1 mm 4 mps 754 mmHg 92%
    05:00 +5°C° 0.1 mm 4 mps 754 mmHg 93%
    06:00 +5°C° 0.1 mm 4 mps 754 mmHg 93%
    07:00 +5°C° 0.1 mm 4 mps 753 mmHg 94%
    08:00 +5°C° 0.1 mm 4 mps 753 mmHg 95%
    09:00 +6°C° 0.1 mm 4 mps 753 mmHg 95%
    10:00 +6°C° 0.1 mm 4 mps 753 mmHg 94%
    11:00 +7°C° 0.1 mm 4 mps 753 mmHg 94%
    12:00 +7°C° 0.1 mm 4 mps 753 mmHg 93%
    13:00 +7°C° 0.1 mm 4 mps 752 mmHg 93%
    14:00 +8°C° 0.1 mm 4 mps 751 mmHg 92%
    15:00 +9°C° 0 mm 3 mps 751 mmHg 92%
    16:00 +8°C° 0 mm 3 mps 751 mmHg 93%
    17:00 +8°C° 0 mm 3 mps 751 mmHg 93%
    18:00 +8°C° 0 mm 3 mps 751 mmHg 93%
    19:00 +8°C° 0 mm 3 mps 751 mmHg 93%
    20:00 +8°C° 0 mm 3 mps 751 mmHg 93%
    21:00 +8°C° 0.5 mm 3 mps 751 mmHg 94%
    22:00 +8°C° 0.5 mm 3 mps 751 mmHg 95%
    23:00 +8°C° 0.5 mm 3 mps 751 mmHg 96%

    Day after tomorrow, 21 January, Monday

    Time Temperature Precipitation Wind Pressure Humidity
    00:00 +8°C° 0.7 mm 3 mps 751 mmHg 96%
    01:00 +7°C° 0.7 mm 3 mps 751 mmHg 96%
    02:00 +7°C° 0.7 mm 2 mps 751 mmHg 96%
    03:00 +7°C° 0.1 mm 3 mps 751 mmHg 94%
    04:00 +5°C° 0.1 mm 4 mps 751 mmHg 92%
    05:00 +3°C° 0.1 mm 5 mps 750 mmHg 89%
    06:00 +3°C° 0 mm 5 mps 751 mmHg 88%
    07:00 +2°C° 0 mm 5 mps 751 mmHg 87%
    08:00 +2°C° 0 mm 5 mps 752 mmHg 86%
    09:00 +3°C° 0 mm 5 mps 752 mmHg 83%
    10:00 +3°C° 0 mm 5 mps 753 mmHg 81%
    11:00 +3°C° 0 mm 5 mps 753 mmHg 78%
    12:00 +5°C° 0 mm 5 mps 753 mmHg 76%
    13:00 +5°C° 0 mm 4 mps 753 mmHg 74%
    14:00 +6°C° 0 mm 4 mps 753 mmHg 72%
    15:00 +5°C° 0 mm 4 mps 753 mmHg 74%
    16:00 +5°C° 0 mm 4 mps 753 mmHg 76%
    17:00 +4°C° 0 mm 4 mps 753 mmHg 77%
    18:00 +4°C° 0 mm 4 mps 754 mmHg 78%
    19:00 +3°C° 0 mm 4 mps 754 mmHg 79%
    20:00 +3°C° 0 mm 4 mps 755 mmHg 79%
    21:00 +3°C° 0 mm 3 mps 755 mmHg 80%
    22:00 +3°C° 0 mm 3 mps 755 mmHg 81%
    23:00 +3°C° 0 mm 3 mps 755 mmHg 81%

    22 January, Tuesday

    Time Temperature Precipitation Wind Pressure Humidity
    00:00 +2°C° 0 mm 3 mps 755 mmHg 83%
    01:00 +2°C° 0 mm 3 mps 755 mmHg 84%
    02:00 +2°C° 0 mm 3 mps 755 mmHg 86%
    03:00 +2°C° 0 mm 3 mps 754 mmHg 86%
    04:00 +2°C° 0 mm 3 mps 754 mmHg 87%
    05:00 +2°C° 0 mm 3 mps 754 mmHg 88%
    06:00 +2°C° 0.1 mm 3 mps 754 mmHg 88%
    07:00 +1°C° 0.1 mm 4 mps 754 mmHg 89%
    08:00 +1°C° 0.1 mm 4 mps 754 mmHg 89%
    09:00 +3°C° 0.1 mm 4 mps 753 mmHg 88%
    10:00 +4°C° 0.1 mm 4 mps 753 mmHg 87%
    11:00 +4°C° 0.1 mm 4 mps 753 mmHg 87%
    12:00 +4°C° 0.1 mm 4 mps 752 mmHg 88%
    13:00 +5°C° 0.1 mm 4 mps 752 mmHg 89%
    14:00 +5°C° 0.1 mm 4 mps 751 mmHg 90%
    15:00 +5°C° 0.1 mm 4 mps 751 mmHg 91%
    16:00 +5°C° 0.1 mm 4 mps 750 mmHg 92%
    17:00 +6°C° 0.1 mm 4 mps 750 mmHg 93%
    18:00 +6°C° 0.1 mm 5 mps 749 mmHg 93%
    19:00 +6°C° 0.1 mm 5 mps 749 mmHg 93%
    20:00 +5°C° 0.1 mm 6 mps 749 mmHg 94%
    21:00 +5°C° 0.1 mm 6 mps 748 mmHg 94%
    22:00 +6°C° 0.1 mm 5 mps 748 mmHg 94%
    23:00 +6°C° 0.1 mm 5 mps 747 mmHg 94%

    23 January, Wednesday

    Time Temperature Precipitation Wind Pressure Humidity
    00:00 +6°C° 0 mm 5 mps 746 mmHg 94%
    01:00 +7°C° 0 mm 5 mps 746 mmHg 94%
    02:00 +7°C° 0 mm 5 mps 745 mmHg 94%
    03:00 +7°C° 0.2 mm 5 mps 744 mmHg 94%
    04:00 +7°C° 0.2 mm 5 mps 744 mmHg 93%
    05:00 +7°C° 0.2 mm 6 mps 743 mmHg 93%
    06:00 +7°C° 2.6 mm 6 mps 742 mmHg 92%
    07:00 +6°C° 2.6 mm 7 mps 742 mmHg 91%
    08:00 +6°C° 2.6 mm 8 mps 742 mmHg 91%
    09:00 +7°C° 0.3 mm 8 mps 741 mmHg 89%
    10:00 +7°C° 0.3 mm 8 mps 741 mmHg 87%
    11:00 +7°C° 0.3 mm 9 mps 741 mmHg 85%
    12:00 +9°C° 0.7 mm 8 mps 740 mmHg 83%
    13:00 +9°C° 0.7 mm 8 mps 739 mmHg 81%
    14:00 +10°C° 0.7 mm 7 mps 739 mmHg 79%
    15:00 +10°C° 0.2 mm 7 mps 739 mmHg 79%
    16:00 +10°C° 0.2 mm 6 mps 739 mmHg 79%
    17:00 +9°C° 0.2 mm 6 mps 739 mmHg 80%
    18:00 +9°C° 0.1 mm 6 mps 739 mmHg 81%
    19:00 +8°C° 0.1 mm 6 mps 739 mmHg 82%
    20:00 +7°C° 0.1 mm 5 mps 740 mmHg 82%
    21:00 +7°C° 0 mm 5 mps 740 mmHg 83%
    22:00 +7°C° 0 mm 5 mps 740 mmHg 83%
    23:00 +6°C° 0 mm 4 mps 741 mmHg 83%

    24 January, Thursday

    Time Temperature Precipitation Wind Pressure Humidity
    00:00 +6°C° 0 mm 4 mps 741 mmHg 83%
    01:00 +6°C° 0 mm 4 mps 741 mmHg 83%
    02:00 +6°C° 0 mm 5 mps 741 mmHg 83%
    03:00 +6°C° 0 mm 4 mps 741 mmHg 84%
    04:00 +6°C° 0 mm 4 mps 741 mmHg 85%
    05:00 +5°C° 0 mm 4 mps 741 mmHg 86%
    06:00 +5°C° 0 mm 4 mps 741 mmHg 88%
    07:00 +6°C° 0 mm 4 mps 741 mmHg 89%
    08:00 +6°C° 0 mm 4 mps 741 mmHg 90%
    09:00 +7°C° 0 mm 5 mps 741 mmHg 88%
    10:00 +8°C° 0 mm 5 mps 741 mmHg 85%
    11:00 +9°C° 0 mm 5 mps 740 mmHg 83%
    12:00 +9°C° 0 mm 6 mps 740 mmHg 83%
    13:00 +9°C° 0 mm 6 mps 740 mmHg 84%
    14:00 +9°C° 0 mm 6 mps 740 mmHg 84%
    15:00 +8°C° 0 mm 6 mps 740 mmHg 87%
    16:00 +8°C° 0 mm 5 mps 740 mmHg 89%
    17:00 +7°C° 0 mm 4 mps 740 mmHg 91%
    18:00 +7°C° 1.1 mm 4 mps 740 mmHg 93%
    19:00 +8°C° 1.1 mm 5 mps 740 mmHg 94%
    20:00 +8°C° 1.1 mm 5 mps 740 mmHg 95%
    21:00 +7°C° 0.1 mm 5 mps 740 mmHg 93%
    22:00 +7°C° 0.1 mm 5 mps 740 mmHg 92%
    23:00 +7°C° 0.1 mm 5 mps 740 mmHg 90%
    Show more